sat.trackr.live / text

‹ back to catalog

SDA_1681

NORAD 65991 · 2025-230T

PAYLOAD ACTIVE UNKNOWN

§ Identity

Operator
Country
US
Launch date
2025-10-15
Launch site
AFWTR
Launch vehicle
Mass (kg)
RCS (m²)

External: N2YO · Heavens-Above · Gunter

§ Orbital elements

Epoch: 2026-05-24T22:44:45.706272Z

Period
103.95 min
Inclination
81.3016°
Eccentricity
0.0003016
Mean motion
13.85300921 rev/d
Perigee alt
942.9 km
Apogee alt
947.4 km
Semi-major
7,323.3 km
B*
1.3176e-4
RAAN
233.1094°
Arg perigee
255.8326°
Mean anomaly
104.2496°
Rev number
3,060

§ Raw data

SDA_16811 65991U 25230T   26144.94775123  .00000162  00000+0  13176-3 0  99962 65991  81.3016 233.1094 0003016 255.8326 104.2496 13.85300921 30601

JSON: /api/v1/satellites/65991 · /tle

For live sub-satellite position, see the globe view (requires WebGL).

§ Visibility from observer

Set your observer location to see the next 7 days of passes ≥ 10°. The values pass through the URL so the page stays shareable.

No JS? Fill the form by hand. The geolocation button needs JavaScript.